Change the Weather History Date:

Tuesday, April 23, 2013

  Actual Average Record
Temperature  
Mean Temperature 34 °F -  
Max Temperature 41 °F 53 °F 82 °F (1990)
Min Temperature 26 °F 32 °F 19 °F (1967)
Degree Days  
Heating Degree Days 31    
Moisture  
Dew Point 17 °F    
Average Humidity 51    
Maximum Humidity 72    
Minimum Humidity 29    
Precipitation  
Precipitation 0.00 in - - ()
Sea Level Pressure  
Sea Level Pressure 30.11 in    
Wind  
Wind Speed 9 mph (NW)    
Max Wind Speed 14 mph    
Max Gust Speed 20 mph    
Visibility 10 miles    
Events      
Averages and records for this station are not official NWS values.
T = Trace of Precipitation, MM = Missing Value Source: NWS Daily Summary

Daily Weather History Graph

Daily Weather History Graph

Search for Another Location

Airport or City:

Trip Planner

Search our weather history database for the weather conditions in past years. The results will help you decide how hot, cold, wet, or windy it might be!

Date:

Astronomy

Apr. 23, 2013 Rise Set
Actual Time 6:07 AM CDT 8:12 PM CDT
Civil Twilight 5:34 AM CDT 8:45 PM CDT
Nautical Twilight 4:53 AM CDT 9:26 PM CDT
Astronomical Twilight 4:08 AM CDT 10:12 PM CDT
Moon 6:00 PM CDT (4/23) 4:45 AM CDT (4/23)
Length of Visible Light 15h 10m
Length of Day
14h 04m
Waxing Gibbous, 94% of the Moon is Illuminated
Apr 23
Waxing Gibbous
Apr 25
Full
May 2
Last Quarter
May 9
New
May 17
First Quarter

Hourly Weather History & Observations

Time (CDT) Temp. Windchill Dew Point Humidity Pressure Visibility Wind Dir Wind Speed Gust Speed Precip Events Conditions
12:53 AM 32.0 °F 24.8 °F 21.0 °F 64% 30.22 in 10.0 mi NNW 8.1 mph - N/A   Overcast
1:53 AM 32.0 °F 26.4 °F 19.9 °F 61% 30.19 in 10.0 mi NNW 5.8 mph - N/A   Overcast
2:53 AM 30.9 °F 23.5 °F 19.9 °F 64% 30.18 in 10.0 mi NNW 8.1 mph - N/A   Mostly Cloudy
3:53 AM 30.9 °F 22.8 °F 19.0 °F 61% 30.18 in 10.0 mi NNW 9.2 mph - N/A   Overcast
4:53 AM 30.9 °F 24.3 °F 19.9 °F 64% 30.17 in 10.0 mi NNW 6.9 mph - N/A   Overcast
5:53 AM 30.0 °F 22.4 °F 19.9 °F 66% 30.16 in 10.0 mi North 8.1 mph - N/A   Overcast
6:53 AM 27.0 °F 20.5 °F 19.0 °F 72% 30.17 in 10.0 mi NW 5.8 mph - N/A   Overcast
7:53 AM 30.9 °F 21.7 °F 19.9 °F 64% 30.17 in 10.0 mi NNW 11.5 mph - N/A   Clear
8:53 AM 32.0 °F 24.2 °F 18.0 °F 56% 30.17 in 10.0 mi North 9.2 mph - N/A   Clear
9:53 AM 34.0 °F 25.5 °F 16.0 °F 48% 30.15 in 10.0 mi North 11.5 mph - N/A   Mostly Cloudy
10:53 AM 35.1 °F 26.4 °F 16.0 °F 46% 30.14 in 10.0 mi NNW 12.7 mph - N/A   Mostly Cloudy
11:53 AM 36.0 °F 27.5 °F 16.0 °F 44% 30.13 in 10.0 mi NNW 12.7 mph - N/A   Scattered Clouds
12:53 PM 37.0 °F 28.5 °F 16.0 °F 42% 30.10 in 10.0 mi NW 13.8 mph 19.6 mph N/A   Clear
1:53 PM 37.0 °F 28.9 °F 16.0 °F 42% 30.09 in 10.0 mi NW 12.7 mph - N/A   Clear
2:53 PM 37.9 °F 30.5 °F 15.1 °F 39% 30.08 in 10.0 mi NW 11.5 mph 18.4 mph N/A   Clear
3:53 PM 39.0 °F 31.4 °F 15.1 °F 38% 30.07 in 10.0 mi NNW 12.7 mph - N/A   Clear
4:53 PM 41.0 °F 35.8 °F 10.9 °F 29% 30.05 in 10.0 mi WNW 8.1 mph - N/A   Clear
5:53 PM 39.0 °F 32.3 °F 14.0 °F 36% 30.04 in 10.0 mi NNW 10.4 mph - N/A   Clear
6:53 PM 37.9 °F 31.5 °F 16.0 °F 41% 30.04 in 10.0 mi WNW 9.2 mph - N/A   Clear
7:53 PM 37.9 °F 33.5 °F 12.9 °F 36% 30.04 in 10.0 mi West 5.8 mph - N/A   Clear
8:53 PM 33.1 °F 30.0 °F 12.9 °F 43% 30.05 in 10.0 mi WSW 3.5 mph - N/A   Clear
9:53 PM 30.0 °F 25.2 °F 15.1 °F 54% 30.05 in 10.0 mi West 4.6 mph - N/A   Clear
10:53 PM 30.0 °F 26.5 °F 14.0 °F 51% 30.04 in 10.0 mi West 3.5 mph - N/A   Clear
11:53 PM 26.1 °F 21.9 °F 16.0 °F 66% 30.04 in 10.0 mi West 3.5 mph - N/A   Clear